SB KEPS @ AMSAT $ORB09232.O Orbital Elements 09232.OSCAR
HR AMSAT ORBITAL ELEMENTS FOR OSCAR SATELLITES FROM WA5QGD FORT WORTH,TX August 20, 2009 Send Subscribe/unsubscribe to KEPS at http://www.amsat.org/mailman/listinfo/keps BID: ORB09232.O TO ALL RADIO AMATEURS BT
Satellite: AO-07 Catalog number: 07530 Epoch time: 09231.69446898 Element set: 559 Inclination: 101.4245 deg RA of node: 254.0354 deg Eccentricity: 0.0011854 Arg of perigee: 143.0502 deg Mean anomaly: 217.1384 deg Mean motion: 12.53576214 rev/day Decay rate: -2.7e-07 rev/day^2 Epoch rev: 59067 Checksum: 294
Satellite: FO-29 Catalog number: 24278 Epoch time: 09231.23192975 Element set: 0121 Inclination: 098.5446 deg RA of node: 096.7716 deg Eccentricity: 0.0350559 Arg of perigee: 186.8788 deg Mean anomaly: 172.7474 deg Mean motion: 13.52944294 rev/day Decay rate: -3.5e-07 rev/day^2 Epoch rev: 64227 Checksum: 352
Satellite: SO-33 Catalog number: 25509 Epoch time: 09231.80134327 Element set: 522 Inclination: 031.4324 deg RA of node: 052.7820 deg Eccentricity: 0.0354314 Arg of perigee: 174.7967 deg Mean anomaly: 185.6462 deg Mean motion: 14.28262689 rev/day Decay rate: 2.01e-06 rev/day^2 Epoch rev: 56493 Checksum: 301
Satellite: RS-22 Catalog number: 27939 Epoch time: 09231.65356522 Element set: 0870 Inclination: 097.9343 deg RA of node: 104.1831 deg Eccentricity: 0.0012672 Arg of perigee: 294.9252 deg Mean anomaly: 065.0640 deg Mean motion: 14.63335031 rev/day Decay rate: 9.0e-08 rev/day^2 Epoch rev: 31485 Checksum: 294
Satellite: VO-52 Catalog number: 28650 Epoch time: 09231.80325078 Element set: 0301 Inclination: 097.7374 deg RA of node: 291.2653 deg Eccentricity: 0.0027148 Arg of perigee: 179.2720 deg Mean anomaly: 180.8559 deg Mean motion: 14.81611620 rev/day Decay rate: 2.32e-06 rev/day^2 Epoch rev: 23206 Checksum: 291
/EX SB KEPS @ AMSAT $ORB09232.D Orbital Elements 09232.MICROS
HR AMSAT ORBITAL ELEMENTS FOR THE MICROSATS FROM WA5QGD FORT WORTH,TX August 20, 2009 Send Subscribe/unsubscribe to KEPS at http://www.amsat.org/mailman/listinfo/keps BID: ORB09232.D TO ALL RADIO AMATEURS BT
Satellite: AO-16 Catalog number: 20439 Epoch time: 09231.79578839 Element set: 0682 Inclination: 098.2851 deg RA of node: 197.3235 deg Eccentricity: 0.0010986 Arg of perigee: 347.5702 deg Mean anomaly: 012.5206 deg Mean motion: 14.31830917 rev/day Decay rate: -3.0e-08 rev/day^2 Epoch rev: 02225 Checksum: 307
Satellite: LO-19 Catalog number: 20442 Epoch time: 09232.68079100 Element set: 596 Inclination: 098.2484 deg RA of node: 205.1821 deg Eccentricity: 0.0011479 Arg of perigee: 340.0494 deg Mean anomaly: 020.0234 deg Mean motion: 14.32065433 rev/day Decay rate: -9.8e-07 rev/day^2 Epoch rev: 2254 Checksum: 273
Satellite: AO-27 Catalog number: 22825 Epoch time: 09231.78102779 Element set: 0320 Inclination: 098.4404 deg RA of node: 183.2168 deg Eccentricity: 0.0009369 Arg of perigee: 078.2248 deg Mean anomaly: 281.9985 deg Mean motion: 14.29271468 rev/day Decay rate: 6.0e-08 rev/day^2 Epoch rev: 82899 Checksum: 345
Satellite: IO-26 Catalog number: 22826 Epoch time: 09232.38996747 Element set: 48 Inclination: 098.4344 deg RA of node: 184.5281 deg Eccentricity: 0.0009910 Arg of perigee: 072.0485 deg Mean anomaly: 288.1773 deg Mean motion: 14.29524056 rev/day Decay rate: 1.7e-07 rev/day^2 Epoch rev: 82918 Checksum: 336
Satellite: GO-32 Catalog number: 25397 Epoch time: 09231.91071441 Element set: 0971 Inclination: 098.3261 deg RA of node: 250.8351 deg Eccentricity: 0.0002149 Arg of perigee: 073.0626 deg Mean anomaly: 287.0786 deg Mean motion: 14.23161962 rev/day Decay rate: -9.1e-07 rev/day^2 Epoch rev: 57719 Checksum: 307
Satellite: NO-44 Catalog number: 26931 Epoch time: 09231.67030908 Element set: 0247 Inclination: 067.0510 deg RA of node: 260.7942 deg Eccentricity: 0.0006600 Arg of perigee: 278.0063 deg Mean anomaly: 082.0287 deg Mean motion: 14.29564469 rev/day Decay rate: 1.51e-06 rev/day^2 Epoch rev: 41165 Checksum: 288
Satellite: SO-50 Catalog number: 27607 Epoch time: 09231.39440928 Element set: 962 Inclination: 064.5566 deg RA of node: 193.1186 deg Eccentricity: 0.0060506 Arg of perigee: 190.2734 deg Mean anomaly: 169.7138 deg Mean motion: 14.71453409 rev/day Decay rate: -2.6e-07 rev/day^2 Epoch rev: 35797 Checksum: 326
Satellite: CO-55 Catalog number: 27844 Epoch time: 09232.50617797 Element set: 648 Inclination: 098.7135 deg RA of node: 240.7660 deg Eccentricity: 0.0009660 Arg of perigee: 324.0453 deg Mean anomaly: 036.0076 deg Mean motion: 14.20651549 rev/day Decay rate: 1.4e-07 rev/day^2 Epoch rev: 31839 Checksum: 310
Satellite: CO-57 Catalog number: 27848 Epoch time: 09231.50655547 Element set: 0598 Inclination: 098.7166 deg RA of node: 238.8432 deg Eccentricity: 0.0009540 Arg of perigee: 331.3101 deg Mean anomaly: 028.7549 deg Mean motion: 14.20451999 rev/day Decay rate: 1.8e-07 rev/day^2 Epoch rev: 31821 Checksum: 326
Satellite: AO-51 Catalog number: 28375 Epoch time: 09232.55636497 Element set: 465 Inclination: 098.0531 deg RA of node: 238.4104 deg Eccentricity: 0.0083652 Arg of perigee: 290.6047 deg Mean anomaly: 068.6188 deg Mean motion: 14.40649734 rev/day Decay rate: -1.0e-08 rev/day^2 Epoch rev: 27022 Checksum: 313
Satellite: CO-56 Catalog number: 28941 Epoch time: 09232.78036428 Element set: 365 Inclination: 098.1374 deg RA of node: 059.8092 deg Eccentricity: 0.0065826 Arg of perigee: 245.2344 deg Mean anomaly: 114.2180 deg Mean motion: 15.92685012 rev/day Decay rate: 7.7689e-04 rev/day^2 Epoch rev: 19750 Checksum: 342
Satellite: GENESAT1 Catalog number: 29655 Epoch time: 09232.83435070 Element set: 786 Inclination: 040.0228 deg RA of node: 137.8714 deg Eccentricity: 0.0004693 Arg of perigee: 272.5258 deg Mean anomaly: 087.5058 deg Mean motion: 15.66828389 rev/day Decay rate: 8.223e-05 rev/day^2 Epoch rev: 15261 Checksum: 322
Satellite: CP3 Catalog number: 31129 Epoch time: 09232.59804067 Element set: 139 Inclination: 097.9839 deg RA of node: 282.5745 deg Eccentricity: 0.0103577 Arg of perigee: 085.6637 deg Mean anomaly: 275.6391 deg Mean motion: 14.52155861 rev/day Decay rate: 3.1e-07 rev/day^2 Epoch rev: 12423 Checksum: 320
Satellite: CO-65 Catalog number: 32785 Epoch time: 09232.89614360 Element set: 450 Inclination: 097.9402 deg RA of node: 296.3128 deg Eccentricity: 0.0015015 Arg of perigee: 176.6056 deg Mean anomaly: 183.5261 deg Mean motion: 14.81509662 rev/day Decay rate: 1.56e-06 rev/day^2 Epoch rev: 7102 Checksum: 303
Satellite: KKS-1 Catalog number: 33493 Epoch time: 09232.77001209 Element set: 678 Inclination: 098.0611 deg RA of node: 345.2777 deg Eccentricity: 0.0020902 Arg of perigee: 035.9792 deg Mean anomaly: 324.2821 deg Mean motion: 14.80715588 rev/day Decay rate: 1.73e-06 rev/day^2 Epoch rev: 3102 Checksum: 290
Satellite: SOHLA-1 Catalog number: 33496 Epoch time: 09232.73556454 Element set: 642 Inclination: 098.0417 deg RA of node: 341.0506 deg Eccentricity: 0.0007906 Arg of perigee: 078.6659 deg Mean anomaly: 281.5439 deg Mean motion: 14.69443405 rev/day Decay rate: -4.0e-08 rev/day^2 Epoch rev: 3075 Checksum: 308
/EX SB KEPS @ AMSAT $ORB09232.W Orbital Elements 09232.WEATHER
HR AMSAT ORBITAL ELEMENTS FOR WEATHER SATELLITES FROM WA5QGD FORT WORTH,TX August 20, 2009 Send Subscribe/unsubscribe to KEPS at http://www.amsat.org/mailman/listinfo/keps BID: ORB09232.W TO ALL RADIO AMATEURS BT
Satellite: NOAA-10 Catalog number: 16969 Epoch time: 09231.59558919 Element set: 0730 Inclination: 098.6902 deg RA of node: 257.8914 deg Eccentricity: 0.0012712 Arg of perigee: 015.9805 deg Mean anomaly: 344.1772 deg Mean motion: 14.27392357 rev/day Decay rate: 7.0e-08 rev/day^2 Epoch rev: 19255 Checksum: 331
Satellite: NOAA-11 Catalog number: 19531 Epoch time: 09231.78100757 Element set: 0747 Inclination: 098.7834 deg RA of node: 320.7508 deg Eccentricity: 0.0010839 Arg of perigee: 289.3686 deg Mean anomaly: 070.6312 deg Mean motion: 14.14901810 rev/day Decay rate: 8.1e-07 rev/day^2 Epoch rev: 07851 Checksum: 305
Satellite: NOAA-12 Catalog number: 21263 Epoch time: 09231.97683446 Element set: 0264 Inclination: 098.7738 deg RA of node: 240.0700 deg Eccentricity: 0.0012108 Arg of perigee: 326.1697 deg Mean anomaly: 033.8709 deg Mean motion: 14.25589597 rev/day Decay rate: 2.5e-07 rev/day^2 Epoch rev: 94948 Checksum: 329
Satellite: MET-3/5 Catalog number: 21655 Epoch time: 09232.79894808 Element set: 642 Inclination: 082.5573 deg RA of node: 160.8609 deg Eccentricity: 0.0014558 Arg of perigee: 024.2337 deg Mean anomaly: 335.9466 deg Mean motion: 13.17020339 rev/day Decay rate: 5.1e-07 rev/day^2 Epoch rev: 86613 Checksum: 318
Satellite: MET-2/21 Catalog number: 22782 Epoch time: 09231.81550834 Element set: 0543 Inclination: 082.5500 deg RA of node: 131.5487 deg Eccentricity: 0.0022539 Arg of perigee: 164.4994 deg Mean anomaly: 195.6865 deg Mean motion: 13.83638941 rev/day Decay rate: -8.8e-07 rev/day^2 Epoch rev: 80640 Checksum: 326
Satellite: OKEAN-4 Catalog number: 23317 Epoch time: 09231.67128504 Element set: 0996 Inclination: 082.5395 deg RA of node: 275.2458 deg Eccentricity: 0.0022907 Arg of perigee: 151.3441 deg Mean anomaly: 208.9044 deg Mean motion: 14.82713864 rev/day Decay rate: -8.0e-08 rev/day^2 Epoch rev: 80177 Checksum: 311
Satellite: NOAA-14 Catalog number: 23455 Epoch time: 09231.93669291 Element set: 0729 Inclination: 098.9066 deg RA of node: 309.3829 deg Eccentricity: 0.0009531 Arg of perigee: 016.1103 deg Mean anomaly: 344.0341 deg Mean motion: 14.13766376 rev/day Decay rate: -2.95e-06 rev/day^2 Epoch rev: 75493 Checksum: 322
Satellite: NOAA-15 Catalog number: 25338 Epoch time: 09231.74834812 Element set: 0049 Inclination: 098.5884 deg RA of node: 219.5767 deg Eccentricity: 0.0009863 Arg of perigee: 229.0382 deg Mean anomaly: 130.9924 deg Mean motion: 14.24779230 rev/day Decay rate: -1.46e-06 rev/day^2 Epoch rev: 58582 Checksum: 340
